• Join FlightAware (Why Join?)
  • Login
  • US Flag 
08:08AM EST


 

Airport Tracker/Info


-or-


 

Live Flight TrackerFlight Track Log ✈ FLG4262 ✈ 12-Nov-2013 ✈ KBGM - KDTW

Flight Track Log - Related Links

Times and Time Zones

All times are in EST time to prevent confusion due to time zone crossing. See the FLG4262 flight status page for this flight to view local times or setup timezone preferences in your user account.

Time Position Orientation Groundspeed Altitude Reporting Facility
EST Latitude Longitude Course Direction KTS MPH feet Rate Location/Type
06:11PM 42.2417 -76.0347 289° West 208 239 4,600  Level Cleveland Center
06:11PM 42.2558 -76.0911 289° West 204 235 6,700 2,722 Climbing New York Center
06:12PM 42.2792 -76.1769 290° West 221 254 9,000 1,350 Climbing New York Center
06:13PM 42.3044 -76.2633 292° West 239 275 9,400 1,000 Climbing New York Center
06:14PM 42.3278 -76.3439 291° West 251 289 11,000 1,304 Climbing New York Center
06:15PM 42.3431 -76.4008 290° West 272 313 11,400 1,149 Climbing Cleveland Center
06:16PM 42.2272 -76.6079 289° West  Level Estimated
06:16PM 42.3761 -76.5147 291° West 312 359 12,800  Level Cleveland Center
06:17PM 42.4075 -76.6339 290° West 330 380 15,100 2,371 Climbing Cleveland Center
06:18PM 42.4392 -76.7497 290° West 332 382 17,700 2,081 Climbing Cleveland Center
06:19PM 42.4761 -76.8894 290° West 329 379 19,400 1,500 Climbing Cleveland Center
06:20PM 42.5072 -77.0078 290° West 333 383 20,800 1,355 Climbing Cleveland Center
06:21PM 42.5411 -77.1317 290° West 348 400 22,200 1,210 Climbing Cleveland Center
06:22PM 42.5728 -77.2539 289° West 348 400 23,300 968 Climbing Cleveland Center
06:23PM 42.6067 -77.3814 290° West 357 411 24,200 774 Climbing Cleveland Center
06:24PM 42.6422 -77.5153 290° West 369 425 24,900 726 Climbing Cleveland Center
06:25PM 42.6758 -77.6475 289° West 370 426 25,700 864 Climbing Cleveland Center
06:26PM 42.7136 -77.7908 290° West 377 434 26,700 768 Climbing Cleveland Center
06:27PM 42.7481 -77.9261 289° West 379 436 27,300 581 Climbing Cleveland Center
06:28PM 42.7886 -78.0867 289° West 375 432 27,900 532 Climbing Cleveland Center
06:29PM 42.7939 -78.2303 273° West 388 447 28,400 484 Climbing Cleveland Center
06:30PM 42.7883 -78.3742 267° West 384 442 28,900 484 Climbing Cleveland Center
06:32PM 42.7828 -78.5194 267° West 386 444 29,400 484 Climbing Cleveland Center
06:33PM 42.7786 -78.6644 268° West 386 444 29,900 290 Climbing Cleveland Center
06:34PM 42.7722 -78.8103 267° West 387 445 30,000 48 Climbing Cleveland Center
06:35PM 42.7667 -78.9922 268° West 402 463 30,000  Level Cleveland Center
06:36PM 42.7594 -79.1456 266° West 406 467 30,000  Level Cleveland Center
06:37PM 42.7522 -79.3019 266° West 415 478 30,000  Level Cleveland Center
06:38PM 42.7458 -79.4597 267° West 419 482 30,000  Level Cleveland Center
06:39PM 42.7375 -79.6169 266° West 419 482 30,000  Level Cleveland Center
06:40PM 42.7281 -79.8069 266° West 423 487 30,000  Level Cleveland Center
06:41PM 42.7203 -79.9661 266° West 423 487 30,000 -387 Level Cleveland Center
06:42PM 42.7111 -80.1242 266° West 431 496 29,200 -871 Descending Cleveland Center
06:43PM 42.7017 -80.2842 265° West 425 489 28,200 -581 Descending Cleveland Center
06:44PM 42.6933 -80.4400 266° West 416 479 28,000 -97 Descending Cleveland Center
06:45PM 42.6842 -80.5933 265° West 406 467 28,000 -242 Level Cleveland Center
06:46PM 42.6744 -80.7789 266° West 417 480 27,500 -726 Descending Cleveland Center
06:47PM 42.6656 -80.9361 266° West 416 479 26,500 -968 Descending Cleveland Center
06:48PM 42.6572 -81.0933 266° West 415 478 25,500 -1,210 Descending Cleveland Center
06:49PM 42.6469 -81.2508 265° West 416 479 24,000 -1,452 Descending Cleveland Center
06:50PM 42.6383 -81.4042 266° West 410 472 22,500 -1,392 Descending Cleveland Center
06:51PM 42.6283 -81.5558 265° West 405 466 21,100 -1,440 Descending Cleveland Center
06:52PM 42.6083 -81.7275 261° West 399 459 19,500 -1,500 Descending Cleveland Center
06:53PM 42.5914 -81.8708 261° West 388 447 18,000 -1,258 Descending Cleveland Center
06:54PM 42.5750 -82.0169 261° West 373 429 16,900 -1,161 Descending Cleveland Center
06:55PM 42.5586 -82.1494 261° West 365 420 15,600 -1,290 Descending Cleveland Center
06:56PM 42.5450 -82.2514 260° West 352 405 14,600 -1,355 Descending Cleveland Center
06:56PM 42.5411 -82.2797 259° West 356 410 14,200 -1,571 Descending Cleveland Center
06:57PM 42.5342 -82.3489 262° West 349 402 13,500 -1,355 Descending Cleveland Center
06:57PM 42.5250 -82.4081 258° West 349 402 12,800 -1,377 Descending Cleveland Center
06:58PM 42.5192 -82.4744 263° West 343 395 12,100 -774 Descending Cleveland Center
06:58PM 42.5092 -82.5336 257° West 342 394 12,000 -109 Descending Cleveland Center
06:59PM 42.4925 -82.5869 247° West 354 407 12,000  Level Cleveland Center
06:59PM 42.4689 -82.6544 245° Southwest 349 402 12,000  Level Cleveland Center
07:00PM 42.4506 -82.7058 244° Southwest 351 404 12,000  Level Cleveland Center
07:00PM 42.4178 -82.7961 244° Southwest 351 404 12,000  Level Cleveland Center
07:01PM 42.4081 -82.8303 249° West 351 404 12,000  Level Cleveland Center
07:02PM 42.3656 -82.9489 244° Southwest 348 400 12,000  Level Cleveland Center
07:03PM 42.3342 -83.0300 242° Southwest 343 395 12,000  Level Cleveland Center
07:03PM 42.3261 -83.0594 250° West 299 344 12,000 -387 Level Cleveland Center
07:04PM 42.3017 -83.1208 242° Southwest 275 316 11,600 -689 Descending Cleveland Center
07:04PM 42.2922 -83.1450 242° Southwest 234 269 11,300 -581 Descending Cleveland Center
07:05PM 42.2503 -83.1819 213° Southwest 258 297 11,000 -300 Descending Cleveland Center
07:05PM 42.2317 -83.1986 214° Southwest 262 302 11,000 -774 Level Cleveland Center
07:06PM 42.1761 -83.2381 208° Southwest 266 306 10,200 -984 Descending Cleveland Center
07:06PM 42.1672 -83.2461 214° Southwest 264 304 10,000 -1,304 Descending Cleveland Center
07:07PM 42.1069 -83.2942 211° Southwest 243 280 8,700 -1,574 Descending Cleveland Center
07:08PM 42.0469 -83.3392 209° Southwest 239 275 6,800 -1,744 Descending Cleveland Center
07:09PM 42.0272 -83.3892 242° Southwest 226 260 5,300 -1,900 Descending Cleveland Center
07:09PM 42.0381 -83.3969 332° Northwest 194 223 4,900 -1,662 Descending Cleveland Center
07:10PM 42.0925 -83.3989 358° North 168 193 3,500 -1,200 Descending Cleveland Center
07:11PM 42.1278 -83.3942 North 177 204 2,500 -1,180 Descending Cleveland Center
07:11PM 42.1328 -83.3933 North 134 154 2,300 -871 Descending Cleveland Center
07:12PM 42.1603 -83.3767 24° Northeast 146 168 1,600 -787 Descending Cleveland Center
07:13PM 42.1914 -83.3525 30° Northeast 136 157 700 -871 Descending Cleveland Center